Wind_Speed
34 34 34 33 32 32 32 31 30 28 27 27 28 27 27 27 27 26 25 25 25 25 26 26 27 27 28 28 28 29 31 32 33 34 36 37 37 38 39 40 41 41 41 41 40 40 40 42 43 45 47 49 51 53 53 54 53 52 51 50 49 48 48 50 52 54 56 59 61 62 60 59 61 63 64 65 65 64 63 63 62 60 60 59 58 57 47
34 34 34 33 32 32 31 30 28 28 28 27 26 25 25 26 26 24 22 22 23 25 26 27 28 29 29 28 28 29 30 30 31 33 35 36 37 38 39 39 38 38 37 35 33 32 32 32 34 36 40 43 45 47 49 51 52 52 51 51 50 49 49 49 50 51 53 55 59 62 61 60 61 63 64 65 66 66 63 63 63 62 61 59 58 58 47
34 34 34 33 32 31 31 29 28 28 27 26 25 25 25 25 24 22 21 22 23 25 26 28 30 30 30 29 29 29 30 30 32 34 35 37 37 36 34 32 30 29 29 28 26 25 25 25 25 26 30 34 37 37 39 43 47 49 50 51 50 49 50 49 49 51 52 55 60 64 64 62 61 63 64 65 67 66 65 64 64 63 62 58 58 58 47
34 34 34 32 31 31 30 29 29 28 26 25 24 24 24 23 23 23 24 24 25 26 28 30 31 31 30 30 30 30 31 32 34 36 37 36 33 30 24 20 18 19 20 21 21 22 22 22 22 22 24 28 30 29 30 34 39 44 47 49 50 50 50 50 50 51 51 54 60 65 65 64 63 64 65 66 67 67 67 66 65 64 62 59 58 56 45
34 34 33 31 31 30 30 29 28 27 25 25 24 23 22 23 23 24 26 26 26 27 29 31 32 32 31 30 30 31 32 34 36 37 35 31 26 21 15 13 13 15 17 19 20 21 22 23 23 23 23 25 26 24 25 28 31 37 42 46 49 50 50 50 50 51 50 51 57 63 64 63 63 64 65 66 68 68 69 68 66 64 62 60 59 55 44
34 34 32 31 30 30 29 28 27 26 25 24 23 22 22 23 24 25 26 27 27 28 29 30 31 31 30 30 30 31 33 35 36 34 30 24 18 14 12 12 14 15 17 19 19 19 20 22 23 22 22 23 23 22 23 24 27 31 36 41 46 49 49 50 50 50 49 50 55 61 64 63 63 64 64 66 68 69 69 69 67 65 63 61 59 53 44
34 33 31 30 30 29 28 27 26 26 25 23 22 21 22 23 25 26 27 27 28 28 29 30 30 30 29 29 30 31 33 35 33 29 24 19 13 10 11 12 12 13 14 15 15 14 15 16 18 19 19 19 20 21 22 23 24 28 31 36 42 46 48 50 51 50 49 49 53 59 64 64 63 63 64 65 68 70 70 69 67 66 65 62 58 52 44
33 31 30 30 29 28 27 27 26 25 23 21 21 21 22 24 25 27 28 29 29 30 30 30 30 30 30 30 30 32 34 34 29 24 20 16 10 9 10 10 9 10 11 10 10 10 10 11 12 14 14 15 17 19 20 21 23 26 30 33 37 41 45 48 51 50 47 48 51 56 62 65 64 63 63 65 68 69 69 69 68 68 66 63 58 50 43
31 30 29 29 28 27 27 26 26 25 22 21 21 22 23 25 26 28 30 30 30 31 31 31 31 30 30 30 30 32 33 30 25 22 18 13 9 8 9 8 7 7 8 8 7 7 7 7 9 11 12 12 14 16 17 19 22 25 28 32 34 38 42 45 50 50 47 46 50 54 59 64 66 64 63 65 67 68 69 68 68 69 67 63 58 50 42
29 28 29 29 28 27 27 26 26 24 22 21 22 23 24 25 27 29 31 31 31 32 32 31 32 31 30 30 30 32 31 26 22 21 17 12 9 9 8 7 7 7 6 7 7 6 6 7 8 9 10 10 12 14 15 18 22 23 26 31 34 36 39 42 47 49 47 45 48 53 57 62 67 66 62 63 66 68 68 68 69 70 67 63 59 49 42
28 28 28 28 28 28 27 26 25 24 22 22 23 23 24 26 27 29 31 31 32 33 32 32 32 32 31 30 30 31 29 22 20 20 18 13 10 9 8 7 7 8 8 8 9 8 9 10 11 12 13 12 12 14 15 17 20 23 25 29 33 37 39 40 44 47 46 45 47 51 55 61 68 66 60 62 66 67 67 69 70 70 66 63 59 50 43
28 28 28 28 28 28 27 26 25 24 23 22 23 23 24 25 27 28 30 32 32 33 33 33 33 33 32 30 30 31 27 20 18 20 18 15 12 10 9 8 7 8 8 9 10 10 11 12 13 13 15 16 16 17 18 18 20 22 25 28 32 36 38 39 41 43 44 45 47 51 56 62 68 66 60 62 66 66 67 69 70 70 66 63 59 51 45
28 29 28 28 28 27 27 25 24 24 23 22 22 22 23 25 26 28 30 32 32 33 34 34 34 34 32 30 29 29 25 19 17 18 18 17 15 13 12 10 9 9 9 10 11 11 11 12 13 14 16 18 18 19 21 23 24 24 25 28 31 35 38 38 40 41 42 44 46 51 57 62 66 66 62 62 65 66 67 69 71 70 66 63 59 51 46
28 29 30 29 28 27 26 25 24 23 23 22 22 23 23 25 27 28 30 32 33 33 34 34 35 35 33 30 28 28 24 18 16 17 17 17 16 16 15 12 10 10 11 10 11 11 11 12 13 14 17 19 18 18 20 24 27 27 27 28 31 34 36 37 38 40 40 42 44 48 54 59 63 66 64 62 64 66 66 68 71 70 66 63 59 52 48
29 30 31 31 29 28 26 25 23 22 23 23 23 23 24 25 27 29 30 32 32 33 34 35 36 35 34 30 27 27 23 17 14 15 16 16 16 16 17 16 14 13 12 11 10 11 11 11 12 13 15 16 16 16 17 21 26 29 29 30 33 35 36 36 37 39 39 40 42 45 52 58 61 65 65 63 63 65 66 67 70 69 65 63 59 52 49
29 30 31 31 31 29 27 25 23 21 22 23 23 24 24 25 27 29 30 31 32 33 35 36 36 35 34 31 28 27 23 16 12 13 14 15 15 14 15 17 17 15 12 10 8 10 11 12 14 14 15 17 17 14 14 16 22 29 33 34 34 35 36 36 37 39 40 40 40 44 51 57 58 62 65 63 62 64 65 65 68 68 65 62 58 53 51
29 30 31 31 31 30 28 25 22 20 21 22 23 24 25 26 27 29 31 31 31 33 35 36 37 36 35 33 30 27 24 18 12 11 13 13 14 14 14 15 17 17 14 11 9 11 15 15 14 13 13 18 18 13 11 11 14 19 26 32 35 36 36 36 37 40 40 40 39 41 49 54 55 59 65 63 61 63 65 64 68 68 64 61 58 54 52
29 31 31 31 31 29 28 26 23 20 19 20 21 23 24 25 27 28 31 31 31 32 34 36 37 37 36 34 31 28 25 20 15 13 13 13 14 15 15 16 19 19 18 14 11 13 16 15 13 10 7 10 12 12 13 13 11 10 14 23 32 34 34 35 37 39 39 38 38 40 47 51 52 56 64 63 60 62 65 66 67 66 62 60 58 55 52
30 31 31 30 29 28 28 27 24 21 19 19 20 22 23 25 26 27 29 31 31 32 34 36 37 37 36 35 33 30 26 22 18 15 14 14 15 15 15 16 18 21 21 18 15 14 14 12 10 12 11 6 1 6 11 11 10 11 13 19 28 31 32 34 36 37 37 38 38 41 46 49 49 52 61 64 61 63 66 66 64 64 62 58 57 56 53
31 32 31 29 27 27 28 28 27 24 20 18 19 21 23 24 25 26 28 30 30 31 33 35 35 36 35 34 33 31 28 23 19 17 16 15 15 15 14 15 17 19 20 17 15 15 13 11 11 15 16 12 6 0 4 4 5 9 13 18 23 26 27 29 32 34 36 38 40 42 46 47 47 50 57 63 63 63 66 65 62 62 61 57 56 57 54
31 31 30 27 26 26 28 30 29 24 20 18 18 20 23 23 22 24 26 28 30 31 32 34 34 35 35 34 33 32 30 26 23 19 16 15 16 16 16 16 16 17 17 15 15 16 15 12 13 17 19 13 8 5 4 4 6 9 14 20 24 24 23 23 26 31 36 39 41 43 44 44 45 48 54 61 63 62 62 62 60 60 59 54 54 57 55
31 31 29 27 26 27 28 30 29 23 19 18 19 21 23 21 19 21 24 27 29 30 31 32 34 34 34 34 33 32 30 28 26 23 19 16 15 16 16 16 16 18 19 19 19 19 16 13 12 14 17 16 11 7 5 9 13 15 15 17 23 25 22 21 23 28 34 39 41 41 41 41 43 47 53 60 63 60 59 60 59 59 58 53 51 56 56
32 30 28 27 27 27 27 28 29 26 23 22 22 23 23 20 19 21 23 25 28 29 30 31 32 32 32 33 33 32 30 28 27 26 23 19 16 16 16 16 17 19 20 22 22 21 18 13 10 10 14 16 15 11 9 9 12 13 12 14 20 21 19 20 24 28 32 36 39 40 40 39 42 47 53 59 61 58 57 58 58 58 58 53 49 54 57
31 31 30 28 28 27 27 26 26 25 25 24 24 24 23 22 22 23 23 24 26 28 29 30 31 31 32 33 33 33 31 28 26 25 25 22 18 17 16 16 16 18 19 21 22 20 16 12 10 11 12 14 14 14 13 11 13 15 14 15 19 19 16 20 26 29 31 34 36 39 40 40 41 47 53 57 58 55 55 58 58 57 57 53 50 52 56
31 32 32 30 28 27 26 25 25 24 25 25 24 24 23 22 23 23 22 22 24 27 28 29 30 31 32 33 33 32 31 29 26 24 25 23 19 18 17 16 15 16 17 18 19 19 15 10 9 11 11 10 10 9 10 12 14 16 17 17 19 18 16 20 26 30 32 33 35 38 40 40 42 46 52 56 57 53 54 57 58 56 56 54 51 51 55
31 32 32 30 28 27 26 26 26 26 26 26 25 25 24 24 24 24 22 21 23 27 29 28 29 29 30 32 32 31 30 29 27 25 25 24 21 19 19 18 16 16 16 15 15 17 16 11 10 11 10 9 7 5 5 8 9 12 14 15 17 19 19 20 25 30 32 33 34 37 39 41 44 46 51 56 57 54 53 55 56 56 55 53 50 51 55
30 31 30 29 29 29 29 29 28 28 28 28 27 26 26 25 24 24 23 22 24 28 28 27 28 29 29 30 31 31 29 28 28 27 26 25 23 20 19 19 18 18 16 14 12 14 15 13 11 11 10 8 7 6 3 3 6 8 10 11 16 21 21 19 23 29 31 32 34 36 38 41 45 47 51 54 55 54 53 54 55 54 53 52 49 49 54
29 29 29 29 30 31 31 31 30 30 29 29 28 27 26 25 24 24 23 23 25 27 27 27 28 28 28 29 29 30 29 28 27 27 27 27 26 23 20 19 18 18 17 16 15 16 17 16 14 12 9 7 4 3 2 1 4 6 6 7 12 21 22 19 22 27 30 31 33 35 37 41 45 48 52 54 55 55 53 54 55 54 51 50 49 50 54
28 28 29 29 29 30 30 30 30 30 30 29 29 28 27 26 26 25 23 23 24 25 26 27 27 26 27 28 28 29 29 28 27 27 27 26 27 26 25 22 19 16 15 15 15 16 16 17 16 14 12 8 3 1 2 2 3 4 3 5 9 17 21 19 20 24 27 30 33 35 37 40 43 48 52 53 54 55 54 55 56 54 50 50 50 51 55
27 27 27 27 27 28 28 28 28 28 29 29 30 30 29 28 27 26 25 24 24 25 26 27 26 25 26 28 28 29 29 28 26 26 26 25 26 27 27 25 22 19 16 13 11 10 11 14 15 14 14 11 7 4 3 5 5 4 3 5 9 12 15 17 19 22 24 28 31 34 37 39 42 46 50 50 52 55 56 58 57 53 50 52 53 53 54
26 26 26 26 26 26 26 27 27 27 27 28 28 29 29 28 28 28 27 26 26 27 27 27 27 25 26 28 28 29 29 27 26 26 26 25 26 27 27 27 25 23 21 18 14 11 8 9 10 12 14 14 12 8 3 5 6 5 5 5 8 9 10 12 16 20 23 25 27 31 36 40 42 45 48 48 49 54 58 60 59 53 44 43 50 56 56
26 25 25 26 25 25 25 25 26 26 26 26 27 27 28 28 28 28 27 27 27 27 27 29 28 26 26 27 27 27 28 27 27 27 26 24 25 27 28 27 26 25 24 23 21 19 15 11 9 9 11 12 12 11 7 3 5 6 8 7 7 8 8 8 12 17 22 24 25 27 33 39 43 46 48 48 48 52 56 58 59 56 45 35 39 53 59
26 25 25 25 25 25 25 24 25 25 25 25 25 25 26 26 27 27 27 27 27 27 27 28 28 27 26 26 25 26 27 27 26 27 26 24 25 27 27 27 27 26 25 24 24 25 25 22 18 13 10 9 9 9 9 6 4 6 8 9 8 8 8 8 10 13 18 22 24 25 29 35 41 45 49 50 48 47 49 51 54 57 55 44 36 41 50
25 25 24 24 24 25 24 24 24 23 24 24 24 24 25 25 26 26 26 26 26 26 26 27 27 27 27 26 25 25 26 26 26 26 25 24 25 27 27 26 26 26 26 26 26 26 26 26 25 21 16 13 10 9 8 7 4 2 6 8 9 9 8 9 10 9 12 17 21 23 26 31 36 41 46 50 50 47 46 46 47 49 54 54 47 38 38
25 25 25 24 24 24 24 24 23 23 24 25 24 24 25 26 25 26 26 26 26 26 26 25 26 26 26 26 25 25 25 24 23 24 24 22 22 24 26 26 26 27 27 25 25 26 27 26 25 24 21 18 15 13 12 10 8 5 1 6 9 10 9 9 10 9 9 11 15 19 22 25 29 33 38 44 49 51 49 47 45 42 43 48 49 44 37
24 25 25 24 24 23 23 23 24 24 25 26 26 26 26 27 26 26 26 26 25 25 25 24 24 24 25 25 25 24 24 24 22 22 23 22 21 23 25 25 26 28 28 26 25 26 27 27 25 23 22 21 19 18 16 13 11 10 5 2 8 10 10 10 10 10 10 10 11 14 18 20 22 26 30 35 40 45 46 46 47 45 43 43 42 41 38
23 23 24 24 24 24 23 23 24 25 25 26 26 26 27 28 27 27 27 26 25 24 24 23 23 23 23 24 24 23 23 23 23 23 23 22 22 24 25 25 26 27 27 27 26 26 26 26 25 23 22 22 22 22 20 17 14 13 10 5 2 7 9 10 11 11 11 11 10 11 14 16 17 21 25 28 32 35 38 41 44 46 47 48 46 43 42
22 22 23 23 23 23 23 23 24 24 24 24 25 25 26 27 27 27 26 26 25 24 23 22 22 21 21 22 22 22 21 21 21 22 22 22 23 24 25 25 25 25 25 26 26 25 24 24 25 25 24 24 23 22 20 19 17 15 13 10 6 1 5 9 11 12 12 12 12 11 12 12 14 17 20 23 25 27 30 34 38 42 44 45 47 47 47
22 22 22 22 22 22 22 22 23 23 23 23 23 24 24 25 25 26 26 25 24 23 22 22 21 21 20 20 20 20 20 20 20 20 21 22 24 25 26 26 26 25 24 24 24 24 23 23 24 24 24 24 23 22 21 19 18 17 15 13 10 6 1 4 8 11 13 14 15 15 14 13 13 14 16 17 18 19 22 25 30 35 37 38 39 41 44
22 22 22 22 22 21 21 22 22 23 23 23 23 23 23 24 24 24 24 23 23 22 22 22 21 20 19 19 19 19 19 19 19 19 20 21 23 24 25 26 27 26 25 24 23 22 22 23 23 23 23 22 21 21 21 20 18 17 15 14 12 9 5 0 4 8 12 15 17 18 19 18 17 17 17 17 17 16 16 18 21 24 26 28 29 31 35
22 22 22 22 22 21 21 21 21 22 22 23 22 23 23 23 23 23 23 22 22 22 22 22 21 20 19 19 19 19 19 19 19 20 20 20 22 22 23 24 26 27 27 26 25 23 22 23 22 22 22 22 22 21 19 19 18 17 15 13 12 11 8 4 1 3 7 10 13 17 19 21 22 22 22 21 21 20 19 19 19 19 20 20 21 22 25
22 22 22 22 22 21 21 21 21 21 21 22 22 22 22 22 22 22 21 21 21 21 22 22 21 21 20 19 19 19 19 19 19 20 20 21 22 22 23 24 25 26 26 27 26 25 23 23 23 22 21 22 22 22 20 19 18 17 16 14 12 10 9 7 4 2 3 6 8 12 15 17 19 22 25 25 24 24 24 24 23 23 22 22 22 21 22
22 22 22 22 21 21 22 22 21 21 21 21 21 21 21 22 22 22 21 22 22 21 21 22 21 20 20 19 18 18 19 19 19 20 21 22 23 24 24 25 26 26 26 26 26 25 24 24 24 24 24 23 23 23 22 21 19 17 15 14 13 11 9 8 6 4 3 4 5 7 11 13 14 16 19 22 23 24 25 26 26 27 27 27 26 26 26
22 22 22 21 21 21 22 21 22 22 22 21 21 21 21 21 22 22 22 22 22 21 22 22 21 20 19 19 18 18 19 19 20 20 21 22 24 25 26 28 28 28 28 27 26 26 25 25 25 26 26 26 25 24 23 22 21 19 17 15 13 12 11 9 8 7 6 5 5 5 7 10 11 11 14 17 20 21 23 25 26 27 28 29 29 29 29
23 23 22 22 22 22 22 22 23 23 23 23 23 22 22 22 22 22 22 23 23 22 22 22 22 22 21 19 19 19 19 20 20 21 22 24 25 26 28 29 30 29 29 29 28 27 26 26 26 26 26 27 26 25 24 23 23 21 20 18 16 13 11 11 10 9 8 8 7 6 6 7 8 9 10 13 16 18 21 23 24 25 26 27 28 29 30
22 23 23 23 23 23 23 24 24 25 26 27 27 26 25 24 24 24 24 23 23 23 22 23 23 23 22 21 21 21 21 20 21 21 22 24 26 28 29 31 31 31 31 30 29 28 28 27 26 25 25 26 26 25 24 23 23 23 22 20 19 17 14 12 11 10 9 9 9 9 7 6 7 7 8 10 13 15 18 20 21 23 24 26 27 28 29
23 23 23 24 24 24 24 25 26 27 28 29 31 31 30 29 28 27 27 26 25 25 25 24 24 23 23 22 22 22 22 22 21 22 23 26 28 29 31 32 32 32 32 31 30 29 28 27 26 25 24 24 25 24 24 23 23 23 23 22 21 20 18 16 13 12 11 11 11 11 10 8 8 8 8 9 11 14 16 18 20 22 23 25 26 27 28
23 24 24 24 25 25 26 27 28 28 29 30 31 33 33 32 30 30 29 27 27 28 27 26 24 24 23 22 22 22 22 22 21 22 25 27 29 31 33 33 33 32 32 31 30 28 27 26 25 25 24 23 23 23 23 24 23 24 24 23 22 21 21 19 18 16 14 13 12 12 12 11 10 10 9 9 10 12 14 17 19 20 22 24 25 25 26
23 24 24 25 26 26 27 28 28 29 29 30 31 33 33 33 31 31 29 27 27 29 30 29 27 25 23 23 23 23 22 20 21 23 26 29 30 32 33 33 32 32 31 30 28 27 26 25 24 24 23 23 23 23 23 24 24 24 24 24 24 23 22 22 21 19 18 17 15 14 14 13 12 12 11 10 10 11 13 15 17 19 20 21 21 22 22
23 23 24 25 26 26 27 27 27 27 28 30 30 32 32 32 31 32 33 30 29 31 34 33 28 25 24 24 23 22 19 18 20 24 27 30 31 31 32 32 32 31 30 28 27 25 24 24 23 23 23 23 22 22 22 23 23 23 23 24 24 24 24 23 23 22 21 20 19 18 16 15 15 14 13 12 11 11 12 14 16 17 18 19 19 19 19
23 23 23 24 25 25 26 26 26 26 28 29 30 31 32 32 32 34 35 33 31 33 36 34 27 24 23 22 21 19 18 19 22 26 29 30 31 31 32 31 30 29 27 25 24 23 23 22 22 22 22 21 21 20 20 20 20 21 21 21 21 22 22 23 23 22 22 21 21 21 20 18 17 16 15 14 13 12 12 13 14 16 18 19 20 20 20
23 23 23 24 25 26 26 26 26 26 28 29 30 31 32 33 33 35 36 34 32 33 34 30 25 23 22 22 22 21 19 20 24 29 31 31 32 32 31 29 27 26 24 22 22 23 24 23 22 21 22 21 19 19 18 18 18 18 19 19 19 19 20 20 20 21 21 21 21 21 21 21 20 19 17 17 16 15 14 13 13 15 16 18 19 20 21
Wind_Direction
331 331 331 332 332 332 333 334 334 334 335 337 335 333 333 332 331 332 331 326 325 327 329 328 326 324 321 316 312 307 303 299 296 294 291 288 285 282 279 277 275 273 271 268 265 261 258 255 253 252 250 249 247 244 242 239 238 238 239 238 236 233 230 226 222 220 219 217 216 214 214 215 215 213 212 212 214 217 218 220 221 222 224 227 229 230 220
334 334 334 335 335 335 336 337 337 337 338 339 338 337 336 334 335 338 339 335 334 335 335 332 330 327 324 320 315 310 307 304 301 298 294 291 287 284 281 278 274 271 267 263 258 253 249 249 249 250 250 250 248 245 241 238 235 234 234 235 234 231 229 226 222 219 217 216 216 215 214 214 214 213 213 212 213 215 218 220 222 222 224 225 228 230 222
336 336 337 337 337 338 339 340 340 340 340 342 342 340 339 338 342 347 349 346 343 342 339 335 333 330 326 322 319 315 314 311 308 304 300 297 293 290 287 282 276 271 264 258 253 246 242 242 244 248 249 246 242 238 234 232 231 230 230 231 231 230 227 225 222 219 215 214 215 214 213 212 213 213 212 212 213 214 216 219 222 223 224 224 227 231 222
337 338 340 340 340 340 341 342 342 343 344 345 345 344 343 346 351 354 353 351 347 345 341 338 335 332 328 326 322 320 318 315 312 308 305 302 300 297 290 282 277 276 269 263 261 254 248 245 245 249 248 237 228 224 223 224 226 226 226 227 228 228 226 224 223 220 216 214 214 214 213 212 212 212 212 212 213 213 215 218 220 222 224 224 227 230 222
339 341 342 342 342 342 342 344 345 346 347 347 347 349 350 353 357 358 355 352 348 344 341 339 337 334 331 328 325 323 320 317 314 311 309 308 306 299 287 278 276 274 269 268 269 264 256 251 248 250 246 230 219 218 216 216 220 222 223 224 225 226 225 224 223 221 217 214 213 214 214 212 211 212 212 212 213 213 214 217 219 221 223 224 226 228 221
342 344 345 344 344 343 344 347 348 348 349 350 351 355 357 357 359 1 357 353 350 346 342 341 339 336 334 331 328 326 324 320 318 316 317 316 311 300 291 287 280 276 273 272 273 269 260 254 250 248 241 227 219 218 216 214 215 218 221 223 224 224 224 224 223 222 218 214 212 213 213 212 211 211 211 212 213 213 214 216 218 221 223 224 225 225 220
345 347 347 346 345 344 347 350 349 349 351 353 357 0 1 359 360 1 359 355 353 348 345 344 342 341 339 335 333 330 327 324 324 325 326 323 313 301 301 299 290 285 282 276 272 267 258 251 248 243 235 225 221 220 219 218 216 217 219 221 223 224 223 223 224 222 218 215 212 212 212 212 211 210 210 212 213 213 214 215 217 220 223 223 224 223 218
349 350 349 348 347 347 350 351 350 351 354 358 1 2 1 1 1 1 0 358 355 352 348 348 347 346 344 341 337 334 330 328 331 333 331 327 318 304 305 311 306 294 288 282 275 268 258 248 246 245 238 230 226 222 220 221 220 219 220 221 223 224 223 224 224 223 219 216 213 211 212 212 211 209 209 211 212 213 213 215 216 220 222 223 223 221 216
352 352 351 350 350 350 352 352 352 354 357 0 3 3 2 3 3 2 2 360 358 355 353 352 352 350 348 346 341 337 334 334 337 338 335 331 326 312 305 308 305 291 285 285 279 269 261 251 247 250 247 240 236 229 223 223 223 221 222 222 222 223 224 224 225 223 219 217 214 211 211 211 211 209 208 210 212 213 213 214 216 219 221 222 222 218 212
353 354 354 354 353 352 353 353 354 356 360 2 4 4 4 5 6 4 3 1 360 359 357 356 356 354 353 350 345 341 340 340 340 341 339 337 331 319 311 305 298 294 294 290 282 275 270 262 257 258 254 245 241 238 231 227 225 223 225 224 222 222 223 225 227 225 220 218 217 212 210 211 211 208 207 209 211 212 213 214 216 218 220 221 220 215 208
353 353 354 356 355 353 353 355 355 357 360 2 4 6 7 7 7 5 4 3 3 2 1 360 359 358 356 354 349 346 345 344 344 345 345 345 339 329 322 316 309 306 304 294 285 283 280 274 269 267 264 255 247 245 242 236 230 227 226 225 223 222 222 224 227 226 222 220 219 213 210 211 210 206 206 209 211 211 213 214 216 217 218 220 219 212 205
352 352 353 355 355 353 352 355 356 356 359 2 4 6 8 9 8 6 5 5 5 5 4 4 3 2 360 357 354 350 349 348 348 350 351 352 350 345 338 334 326 316 308 301 297 295 294 290 284 279 275 268 257 249 246 242 236 232 229 226 224 223 222 223 226 226 223 221 220 216 211 209 208 205 205 209 210 210 213 214 216 217 217 218 218 210 203
353 354 354 356 356 352 350 353 355 355 357 0 3 6 8 8 8 6 6 7 8 8 8 7 7 6 3 0 358 355 353 352 353 355 357 358 358 360 358 352 345 335 323 316 312 308 305 302 297 293 291 284 270 255 248 241 236 235 233 229 226 225 223 223 224 226 224 221 221 218 211 207 207 206 205 207 209 210 212 214 215 216 215 216 216 209 202
354 356 356 357 356 352 349 349 352 354 355 358 1 4 6 7 7 6 7 9 11 11 11 10 11 10 6 2 1 0 357 354 359 4 6 6 8 13 16 12 3 352 339 328 321 316 310 301 295 294 296 294 282 260 246 238 233 233 235 233 229 225 224 222 222 224 225 223 222 219 211 207 208 206 204 206 208 209 211 213 215 216 215 215 214 207 200
354 356 356 356 356 353 348 346 349 353 354 355 357 360 2 4 5 5 7 10 12 14 14 13 14 13 9 4 3 4 1 356 360 10 13 13 13 14 15 13 6 355 345 336 326 323 321 316 313 305 294 295 294 276 256 242 232 227 226 229 230 226 222 221 221 222 223 222 221 218 211 207 207 206 204 205 207 209 210 213 216 216 214 214 212 206 200
353 355 355 354 354 353 348 344 345 350 352 352 354 355 357 0 2 3 6 10 13 15 16 17 16 15 13 8 5 6 7 359 354 4 11 12 13 12 11 8 3 356 353 351 343 343 346 342 336 322 294 290 300 294 269 247 233 224 219 220 223 223 220 220 219 220 221 221 220 218 211 206 205 206 204 204 206 208 210 213 216 216 214 213 211 204 200
351 352 353 352 352 352 349 343 340 345 349 350 351 352 354 356 358 1 5 9 13 16 19 19 18 17 16 12 7 7 10 7 357 355 1 2 4 11 14 10 6 6 5 4 2 359 355 343 336 331 301 288 294 291 264 240 228 223 220 218 217 217 217 217 217 219 221 220 219 217 210 205 204 205 204 204 206 208 210 213 215 215 213 212 210 204 200
348 349 349 349 349 349 349 343 337 338 344 347 349 351 352 353 355 359 3 7 12 17 20 21 20 19 19 16 11 6 8 13 9 360 359 359 359 8 15 11 9 11 9 5 3 359 354 344 343 358 344 295 288 276 255 238 221 221 228 222 215 212 212 213 214 218 221 220 218 215 209 204 202 204 204 204 205 209 211 212 214 214 213 212 209 205 201
345 345 345 346 346 347 347 344 337 335 339 344 348 350 351 351 353 357 2 6 11 18 21 22 21 20 20 20 17 9 7 14 18 10 5 4 3 10 18 15 11 12 11 7 0 355 357 0 11 36 57 63 5 257 253 242 223 226 231 216 207 205 206 209 211 213 217 219 217 212 207 202 200 202 203 203 205 209 210 211 213 214 213 211 209 205 202
345 345 346 346 347 347 347 345 339 336 338 343 346 348 349 349 349 354 360 5 10 17 21 23 23 22 21 22 21 16 10 12 19 17 10 6 3 8 18 19 16 17 16 9 359 359 12 29 43 56 66 72 75 355 280 271 224 214 202 186 185 191 196 201 203 206 212 217 216 211 205 200 198 200 202 203 206 209 209 210 214 215 213 211 209 206 202
351 351 350 350 351 351 350 347 342 336 335 340 345 346 344 342 344 352 359 4 8 16 21 23 23 23 22 22 24 22 17 14 16 18 14 7 3 5 11 15 17 21 23 18 11 14 30 47 55 60 66 70 67 50 37 74 118 140 147 150 158 167 174 182 191 200 210 215 214 209 204 199 197 199 201 203 206 209 209 211 214 214 212 211 210 207 203
356 356 355 354 355 355 353 354 356 353 347 347 353 352 346 343 346 354 359 4 8 14 20 24 24 25 24 24 25 25 23 19 17 17 15 10 4 4 6 9 15 21 24 24 21 22 33 51 63 63 66 73 78 78 86 98 106 117 130 144 156 163 165 169 181 200 211 214 212 208 203 198 197 198 199 201 205 209 210 212 214 214 211 210 209 207 204
360 359 358 358 358 356 354 358 5 8 5 3 6 5 359 356 355 355 359 4 8 12 19 24 26 26 26 26 27 26 25 24 22 20 17 12 4 3 5 7 13 19 21 23 23 20 24 41 63 66 61 69 85 108 124 118 117 128 138 150 162 170 173 172 181 200 212 212 210 207 202 197 197 198 199 200 204 208 211 212 214 214 211 210 209 206 204
1 1 1 1 360 357 355 358 3 7 8 8 9 8 4 359 354 352 357 3 7 11 17 22 25 27 28 28 30 28 25 24 24 24 23 18 8 2 4 7 12 18 22 24 25 20 16 28 56 63 55 59 79 106 125 135 145 154 160 168 173 178 183 183 189 202 209 207 207 205 200 196 196 197 198 198 202 208 211 212 214 214 211 211 211 208 205
3 4 5 5 2 358 357 359 2 4 5 6 5 5 2 356 352 351 354 1 6 11 15 19 21 24 27 29 31 30 28 26 26 27 28 27 21 13 12 13 17 25 30 30 28 25 23 27 45 57 60 63 72 94 119 136 150 162 171 179 181 181 182 184 192 204 208 205 203 202 200 196 194 195 198 198 200 205 210 212 214 214 211 210 211 210 206
4 6 7 7 7 6 6 6 5 5 5 4 3 1 359 356 356 354 352 357 8 12 13 15 17 20 24 29 31 31 30 30 30 30 30 30 31 30 26 24 28 36 43 42 34 31 37 44 44 45 54 61 57 62 101 125 139 157 168 174 179 181 181 184 194 206 211 208 204 202 200 197 194 194 197 198 200 205 209 211 212 212 211 211 212 212 209
6 7 7 9 12 14 15 14 12 10 8 6 3 1 359 357 360 0 357 360 8 11 11 11 14 17 21 26 29 30 31 32 33 34 34 32 33 36 35 32 33 39 46 51 43 35 40 49 50 47 47 46 39 32 46 99 118 137 153 163 174 180 182 186 197 206 212 211 207 203 200 198 196 195 196 198 201 205 209 212 211 210 211 212 213 213 211
6 7 7 9 13 16 17 17 16 15 13 11 8 6 4 3 5 7 6 5 6 8 10 10 12 16 19 22 24 27 29 32 34 36 37 36 36 37 37 35 35 36 40 46 46 42 38 36 40 45 40 27 27 30 12 64 104 113 122 133 162 179 187 192 197 206 213 212 206 204 203 201 198 196 196 199 202 204 208 211 208 207 211 214 213 211 211
6 7 6 9 13 16 16 17 17 16 16 16 15 15 14 14 13 13 13 9 5 7 10 10 10 13 15 16 19 23 27 31 33 34 35 36 37 39 39 38 36 35 33 33 36 36 28 20 23 33 33 21 13 320 249 200 132 113 102 96 131 168 188 197 200 206 214 212 205 203 204 203 200 198 198 201 204 205 206 207 206 208 215 218 213 209 209
4 6 6 8 12 14 14 14 15 16 16 17 18 19 20 21 20 19 19 16 12 12 13 12 12 12 11 12 16 20 23 28 31 32 33 35 37 39 40 39 38 37 35 29 23 18 9 1 3 13 19 17 12 347 265 212 169 139 122 81 95 137 176 196 202 206 212 214 209 205 204 203 202 201 201 203 207 208 206 205 206 209 214 217 215 210 208
0 4 5 6 10 13 13 12 12 13 14 15 17 17 18 20 20 20 20 19 18 17 16 16 17 15 10 10 12 15 18 23 26 26 29 34 35 34 35 36 36 36 36 34 29 20 2 342 340 350 359 4 7 5 325 229 197 164 145 112 88 109 150 185 200 204 209 213 213 210 206 204 203 203 201 203 208 210 209 208 208 206 205 210 215 214 210
357 0 2 4 7 10 11 10 9 10 12 13 14 14 14 15 16 17 17 17 18 18 17 17 19 17 13 11 10 10 13 19 22 22 24 29 29 27 27 29 30 30 31 32 32 32 29 19 0 351 352 354 359 5 358 296 224 182 152 131 108 107 129 164 193 205 209 211 212 211 208 206 206 205 203 204 208 213 214 213 213 211 209 210 214 214 213
356 358 360 1 3 6 9 8 7 8 9 10 12 12 12 12 13 12 13 13 14 15 16 17 17 17 16 15 13 11 12 16 19 19 21 22 21 19 21 23 24 24 26 28 30 33 34 33 29 24 18 11 12 16 11 345 268 202 171 149 130 121 130 150 175 199 211 215 217 216 212 210 210 210 208 207 209 214 217 217 219 220 220 220 216 210 210
354 356 357 359 360 2 4 5 6 7 9 10 10 10 10 10 10 9 9 9 10 12 13 15 16 16 16 17 17 16 16 17 17 18 20 19 14 12 16 20 21 22 25 27 28 31 33 32 31 31 33 35 42 52 49 30 1 252 197 173 152 139 140 151 161 178 201 216 223 225 222 218 217 217 216 213 212 214 218 219 223 226 227 228 228 220 210
353 354 356 357 358 358 359 1 3 6 8 10 11 10 10 9 8 7 7 7 6 7 9 11 13 14 14 16 18 18 18 20 19 19 22 22 15 12 15 19 21 23 27 27 26 28 31 31 29 29 30 31 39 56 69 69 58 41 284 203 183 166 158 161 165 167 179 200 217 224 226 226 225 225 224 221 218 219 221 222 224 229 230 231 234 236 229
352 353 354 355 356 356 357 358 0 3 6 7 9 9 9 9 7 6 5 5 4 4 5 7 10 11 12 15 17 16 17 19 19 18 21 24 20 18 21 23 23 24 27 28 25 25 27 28 27 26 26 24 29 41 53 63 70 68 60 217 207 191 175 172 175 176 175 182 200 216 224 227 229 229 230 227 226 228 230 230 231 234 234 232 234 238 239
351 352 353 353 353 354 354 355 359 1 2 3 5 6 6 6 6 4 3 3 3 2 1 2 6 8 9 12 15 14 13 15 15 15 17 19 18 19 22 24 23 22 24 26 25 24 23 24 26 27 26 23 24 28 33 39 51 63 68 73 193 207 197 187 185 187 187 185 189 204 218 226 231 234 235 234 233 234 236 237 238 239 240 240 239 239 241
350 351 351 351 351 351 351 353 356 358 358 359 2 4 4 3 2 1 1 0 360 0 360 360 1 3 5 8 11 11 11 10 10 10 11 12 11 12 14 17 18 19 20 21 21 20 19 20 23 26 26 25 22 21 21 25 31 40 49 57 66 149 214 209 200 196 196 196 195 198 207 216 225 232 237 240 241 241 242 242 242 243 244 246 247 247 247
348 349 350 350 349 349 349 350 353 353 352 354 359 2 1 359 358 357 357 356 356 358 0 360 358 358 1 4 5 6 6 5 5 5 4 4 3 3 4 6 8 10 13 14 14 13 11 12 15 19 21 22 21 19 17 18 21 24 27 33 42 54 119 223 220 212 208 207 207 207 207 207 210 217 225 230 233 238 242 243 244 245 246 249 253 253 252
348 348 348 348 348 347 347 349 350 349 347 350 355 358 356 354 353 353 352 352 354 357 359 358 356 355 357 360 0 0 360 359 358 358 357 357 357 356 357 359 360 0 1 4 5 5 3 3 6 9 10 10 12 16 16 16 17 17 17 18 21 28 39 65 234 231 225 220 216 214 214 213 211 212 218 220 219 222 229 233 238 244 248 250 253 255 253
349 349 348 348 348 348 347 348 348 346 345 347 351 353 351 349 349 348 347 348 352 355 356 355 354 354 355 356 356 356 355 353 353 352 352 352 353 353 354 355 355 354 354 354 355 357 358 358 359 1 1 360 0 3 6 10 12 12 10 11 10 10 11 15 328 246 240 235 229 223 220 220 219 219 221 223 221 220 222 225 230 236 242 246 250 253 253
350 350 348 347 348 349 349 348 347 345 344 344 346 347 346 344 343 343 344 346 349 351 353 352 350 350 351 352 353 353 353 351 350 351 351 351 351 351 351 351 351 351 350 349 348 348 349 349 349 350 352 353 352 351 352 356 2 3 2 3 4 1 359 358 354 315 256 248 246 239 233 229 227 226 226 227 226 224 224 225 227 231 235 240 245 251 255
352 351 349 348 349 351 351 349 348 346 345 344 344 343 342 340 338 339 340 342 344 347 349 348 346 344 345 346 348 349 348 347 348 348 349 349 348 346 345 345 345 345 346 346 343 341 339 338 338 339 341 342 342 341 341 342 344 346 348 351 352 353 351 349 346 331 288 257 251 249 246 243 238 233 232 233 233 229 227 226 228 231 235 239 243 249 254
352 351 350 350 352 353 352 351 350 348 347 347 345 343 340 338 337 337 338 339 341 343 344 343 342 340 339 340 342 342 341 342 343 344 344 344 344 341 339 337 338 339 341 342 340 337 335 333 333 334 335 333 333 333 333 331 331 331 332 332 336 341 345 344 342 338 325 299 275 259 253 252 247 238 233 234 237 236 235 233 233 234 237 239 242 245 249
352 352 352 352 353 354 354 352 351 350 348 348 347 344 341 339 337 337 337 337 336 337 337 338 339 339 337 335 335 335 334 335 336 337 337 338 338 336 334 333 334 335 337 338 338 336 333 332 332 333 330 328 327 327 325 323 322 322 321 319 319 323 331 336 334 331 327 318 303 286 273 268 264 254 238 231 231 233 235 236 236 235 236 237 239 240 242
355 354 353 352 353 354 352 351 350 350 349 348 346 345 342 339 336 336 336 335 333 333 333 335 338 340 338 334 330 328 328 329 329 330 332 332 332 331 332 332 332 333 333 333 335 335 332 331 331 331 328 325 323 322 320 317 315 314 314 313 311 309 310 315 318 318 318 316 310 301 290 279 275 271 256 239 231 229 229 231 232 233 232 232 233 234 235
357 356 355 354 353 352 351 350 350 349 349 348 347 346 344 341 337 333 332 331 332 332 332 333 336 338 336 333 328 324 322 322 322 324 328 329 329 329 330 330 329 329 329 330 332 333 331 331 330 329 326 323 321 319 316 313 310 309 308 307 306 305 302 300 301 306 309 310 309 308 303 291 279 274 268 253 239 230 225 224 226 228 229 229 230 232 233
357 357 356 355 354 352 351 350 348 348 349 348 347 345 343 340 336 335 333 332 332 334 334 334 336 335 332 329 326 321 318 317 316 319 324 328 328 328 328 328 327 327 328 328 330 330 330 329 328 326 324 322 319 315 313 311 307 305 304 302 301 301 299 296 293 295 299 303 304 305 304 300 290 280 275 268 256 242 231 224 221 223 225 227 229 231 232
355 354 354 354 353 352 351 350 348 348 348 348 347 347 343 338 336 339 340 338 336 337 337 335 334 333 332 330 327 323 318 314 314 317 323 326 327 326 325 326 326 326 326 327 328 329 329 329 327 324 323 321 318 314 311 309 306 303 301 300 299 298 297 294 291 289 290 294 297 297 297 298 294 286 278 273 267 258 247 236 229 225 225 226 229 231 233
352 352 351 352 351 351 351 350 349 349 348 348 348 347 343 337 335 338 340 338 337 336 335 334 333 333 332 331 330 327 322 317 317 321 324 324 323 323 324 325 325 325 326 327 329 330 330 329 327 324 322 320 318 315 312 309 308 306 303 300 299 298 296 294 291 288 286 287 289 290 290 290 291 288 283 277 271 266 259 250 242 237 233 231 232 233 235
351 350 351 351 351 351 351 351 350 349 349 348 348 346 342 338 336 335 334 332 331 331 332 334 336 336 332 330 329 326 322 319 320 323 325 324 323 323 324 325 325 325 325 328 331 334 334 332 329 326 324 321 318 315 314 312 311 311 309 306 303 301 298 295 292 289 286 283 283 284 285 284 284 284 283 280 275 268 262 256 252 247 243 240 239 239 239
349 350 351 352 352 352 352 352 351 350 348 348 348 347 345 343 340 335 329 326 327 331 336 341 344 341 335 331 327 322 316 314 319 324 326 325 323 323 324 324 324 324 326 331 335 336 334 332 330 328 325 323 318 314 313 314 314 313 312 311 309 306 303 300 297 294 289 284 281 280 280 280 279 279 279 279 277 273 267 261 256 252 249 247 245 245 244
Height
5751 5748 5745 5742 5739 5736 5733 5729 5726 5723 5721 5718 5716 5714 5712 5710 5708 5706 5703 5700 5697 5694 5692 5689 5687 5684 5682 5679 5677 5674 5672 5669 5667 5664 5662 5659 5657 5655 5653 5651 5650 5648 5648 5648 5649 5649 5650 5651 5652 5653 5654 5656 5658 5661 5665 5668 5671 5674 5678 5682 5686 5691 5695 5700 5706 5711 5717 5722 5725 5728 5734 5738 5742 5747 5752 5757 5761 5763 5768 5772 5776 5779 5781 5785 5787 5789 5801
5749 5745 5742 5739 5736 5733 5730 5727 5724 5721 5718 5716 5714 5712 5709 5707 5705 5703 5700 5697 5694 5691 5689 5686 5684 5681 5678 5675 5672 5670 5667 5665 5662 5659 5656 5653 5650 5647 5645 5644 5643 5641 5641 5641 5641 5642 5643 5644 5645 5646 5648 5649 5650 5653 5657 5660 5663 5667 5670 5674 5679 5684 5688 5693 5699 5704 5709 5713 5716 5720 5726 5730 5735 5741 5746 5751 5754 5759 5765 5768 5771 5773 5776 5781 5783 5785 5798
5747 5743 5740 5737 5734 5730 5727 5724 5721 5719 5716 5714 5712 5709 5707 5705 5702 5700 5698 5695 5691 5689 5686 5683 5680 5677 5674 5671 5668 5665 5663 5660 5656 5653 5649 5645 5642 5640 5638 5636 5636 5635 5635 5636 5636 5637 5638 5639 5640 5642 5643 5644 5645 5647 5650 5653 5656 5660 5663 5667 5672 5677 5681 5686 5691 5695 5700 5704 5707 5711 5717 5723 5729 5735 5740 5745 5749 5754 5760 5762 5765 5768 5773 5779 5780 5782 5796
5745 5741 5738 5735 5732 5728 5725 5722 5719 5717 5714 5712 5710 5707 5705 5702 5700 5698 5695 5692 5689 5686 5684 5680 5677 5674 5671 5668 5664 5661 5658 5655 5651 5647 5643 5639 5636 5634 5632 5631 5631 5631 5631 5632 5632 5633 5634 5635 5636 5637 5638 5640 5641 5643 5646 5648 5650 5653 5656 5660 5665 5669 5674 5679 5683 5687 5693 5698 5702 5706 5712 5717 5723 5729 5734 5739 5744 5749 5753 5756 5760 5764 5769 5775 5777 5781 5795
5743 5740 5736 5733 5730 5727 5724 5721 5718 5715 5713 5710 5708 5705 5703 5701 5698 5696 5693 5690 5687 5684 5681 5678 5674 5671 5667 5664 5661 5658 5654 5650 5646 5642 5638 5634 5631 5630 5628 5628 5628 5628 5629 5628 5628 5629 5630 5631 5632 5634 5635 5636 5638 5640 5642 5643 5645 5648 5651 5654 5658 5663 5668 5673 5676 5681 5687 5692 5696 5701 5706 5712 5718 5724 5729 5734 5739 5743 5748 5751 5755 5760 5766 5770 5773 5780 5794
5741 5738 5734 5731 5728 5725 5722 5719 5717 5714 5712 5709 5706 5704 5701 5699 5696 5694 5691 5688 5686 5682 5679 5676 5672 5668 5665 5661 5657 5654 5650 5645 5641 5637 5633 5630 5628 5627 5626 5626 5626 5626 5626 5625 5625 5626 5627 5628 5629 5630 5631 5632 5634 5636 5637 5639 5641 5643 5646 5649 5652 5657 5662 5666 5670 5674 5680 5686 5690 5695 5701 5707 5713 5719 5724 5729 5733 5738 5743 5747 5752 5757 5761 5764 5770 5779 5790
5740 5736 5733 5730 5727 5724 5721 5718 5716 5713 5710 5708 5705 5703 5700 5698 5695 5693 5690 5687 5684 5681 5678 5674 5670 5666 5662 5658 5654 5650 5646 5641 5637 5633 5630 5628 5626 5625 5624 5624 5623 5623 5623 5623 5623 5623 5624 5625 5625 5626 5628 5629 5630 5632 5633 5635 5637 5639 5641 5644 5647 5651 5656 5660 5662 5667 5674 5680 5685 5690 5696 5701 5707 5713 5719 5723 5728 5733 5739 5744 5749 5752 5754 5760 5768 5777 5786
5738 5735 5732 5729 5726 5723 5720 5717 5715 5712 5709 5707 5705 5702 5700 5697 5694 5691 5689 5686 5683 5679 5676 5672 5668 5663 5659 5655 5651 5646 5642 5637 5634 5631 5628 5626 5625 5624 5623 5622 5622 5621 5621 5621 5621 5621 5622 5622 5623 5624 5624 5626 5627 5628 5630 5632 5634 5636 5638 5640 5643 5647 5651 5654 5657 5662 5669 5675 5680 5684 5690 5695 5701 5708 5713 5718 5723 5729 5734 5740 5745 5746 5750 5757 5765 5774 5783
5737 5734 5731 5728 5725 5722 5719 5716 5714 5711 5709 5706 5704 5701 5699 5696 5694 5691 5688 5685 5682 5678 5674 5670 5666 5661 5657 5652 5648 5644 5639 5635 5631 5629 5627 5625 5624 5623 5622 5621 5620 5620 5620 5619 5620 5620 5620 5620 5621 5621 5622 5623 5624 5624 5627 5628 5630 5633 5635 5636 5640 5643 5646 5649 5651 5656 5664 5669 5673 5678 5684 5690 5695 5701 5707 5713 5719 5725 5731 5736 5739 5741 5746 5753 5760 5771 5780
5736 5733 5730 5727 5724 5721 5719 5716 5713 5711 5708 5706 5703 5701 5698 5696 5693 5690 5687 5684 5680 5677 5672 5668 5664 5659 5655 5650 5646 5642 5637 5633 5630 5628 5626 5625 5623 5622 5621 5620 5619 5618 5618 5618 5618 5618 5618 5618 5618 5618 5619 5620 5621 5621 5623 5624 5626 5629 5631 5633 5636 5638 5641 5644 5646 5651 5659 5664 5667 5673 5679 5684 5688 5696 5705 5711 5715 5721 5727 5731 5733 5736 5742 5749 5757 5768 5777
5736 5733 5729 5726 5723 5721 5718 5716 5713 5710 5708 5706 5703 5701 5698 5695 5692 5689 5686 5683 5679 5675 5671 5667 5662 5657 5653 5649 5644 5640 5636 5633 5630 5627 5625 5624 5622 5621 5620 5619 5618 5617 5617 5616 5616 5615 5616 5615 5616 5616 5616 5616 5618 5618 5619 5621 5623 5625 5627 5629 5632 5634 5637 5639 5641 5648 5655 5659 5663 5668 5672 5676 5683 5695 5704 5707 5711 5718 5722 5725 5727 5732 5739 5746 5754 5766 5774
5735 5732 5729 5726 5723 5720 5718 5715 5713 5710 5708 5705 5703 5700 5697 5695 5692 5689 5686 5682 5678 5674 5670 5665 5661 5656 5651 5647 5643 5639 5635 5632 5630 5627 5625 5623 5622 5620 5620 5619 5618 5617 5616 5615 5614 5614 5614 5614 5613 5613 5613 5613 5614 5615 5616 5618 5619 5621 5623 5626 5628 5630 5633 5635 5638 5644 5650 5654 5658 5661 5665 5672 5682 5692 5698 5701 5707 5713 5716 5719 5723 5728 5735 5742 5750 5761 5770
5734 5731 5728 5725 5722 5720 5717 5715 5712 5710 5708 5705 5703 5700 5697 5694 5692 5689 5685 5681 5678 5673 5669 5665 5660 5655 5650 5646 5642 5638 5635 5632 5630 5627 5625 5623 5621 5620 5619 5618 5617 5616 5615 5614 5614 5613 5613 5612 5612 5611 5610 5609 5609 5610 5611 5612 5614 5617 5619 5622 5624 5626 5628 5632 5636 5640 5645 5649 5653 5656 5662 5671 5679 5685 5691 5696 5702 5707 5711 5715 5718 5723 5731 5739 5746 5757 5766
5733 5730 5727 5724 5722 5719 5717 5714 5712 5710 5707 5705 5702 5699 5696 5694 5691 5688 5685 5681 5677 5673 5669 5664 5659 5654 5650 5646 5642 5638 5635 5632 5630 5628 5625 5623 5621 5620 5619 5618 5617 5616 5615 5614 5613 5612 5612 5611 5610 5609 5607 5605 5605 5605 5605 5606 5609 5612 5616 5618 5619 5621 5624 5628 5632 5636 5641 5646 5650 5654 5662 5668 5673 5679 5687 5692 5698 5703 5708 5712 5715 5720 5728 5735 5743 5754 5761
5733 5730 5727 5724 5721 5719 5716 5714 5711 5709 5707 5704 5702 5699 5696 5693 5691 5688 5684 5680 5677 5673 5669 5664 5659 5654 5650 5646 5642 5639 5635 5632 5631 5629 5626 5624 5622 5621 5619 5618 5617 5616 5614 5613 5612 5611 5610 5609 5608 5607 5605 5603 5601 5601 5601 5602 5604 5607 5610 5613 5614 5617 5620 5624 5628 5632 5637 5642 5646 5651 5657 5662 5668 5676 5684 5690 5696 5701 5705 5709 5711 5716 5725 5731 5740 5750 5757
5732 5729 5726 5723 5721 5718 5715 5713 5711 5708 5706 5704 5701 5699 5696 5693 5690 5687 5684 5680 5677 5673 5668 5664 5659 5655 5651 5647 5643 5639 5636 5633 5631 5629 5627 5625 5624 5622 5621 5619 5617 5615 5614 5613 5611 5610 5609 5607 5606 5604 5602 5600 5599 5598 5597 5597 5598 5600 5604 5606 5609 5613 5617 5620 5624 5628 5633 5638 5643 5647 5652 5659 5666 5675 5682 5688 5693 5697 5702 5705 5707 5712 5721 5728 5737 5746 5752
5732 5729 5726 5723 5720 5717 5715 5712 5710 5707 5705 5703 5700 5698 5695 5693 5690 5687 5684 5680 5677 5673 5668 5664 5660 5656 5652 5647 5644 5640 5637 5634 5632 5630 5628 5626 5625 5623 5622 5620 5617 5615 5613 5612 5611 5609 5608 5606 5604 5603 5600 5597 5596 5595 5595 5595 5595 5597 5599 5602 5605 5609 5613 5617 5622 5625 5629 5635 5640 5645 5650 5657 5664 5672 5678 5684 5689 5693 5696 5699 5703 5709 5718 5726 5734 5743 5748
5731 5728 5725 5722 5719 5717 5714 5711 5709 5706 5704 5701 5699 5697 5695 5692 5690 5687 5684 5680 5677 5673 5669 5664 5660 5656 5652 5648 5645 5641 5638 5635 5633 5630 5629 5627 5625 5624 5622 5619 5617 5615 5613 5612 5611 5609 5607 5605 5603 5602 5598 5595 5594 5593 5593 5593 5593 5595 5597 5598 5601 5605 5610 5615 5619 5622 5626 5633 5638 5642 5647 5654 5661 5668 5674 5680 5685 5688 5691 5696 5703 5710 5717 5724 5732 5739 5745
5730 5727 5724 5721 5718 5715 5713 5710 5708 5705 5703 5700 5698 5696 5694 5692 5689 5687 5684 5680 5677 5673 5669 5665 5661 5657 5653 5650 5646 5643 5640 5636 5634 5631 5629 5627 5626 5625 5622 5620 5618 5615 5613 5612 5611 5610 5608 5605 5603 5601 5598 5595 5593 5592 5591 5591 5591 5593 5594 5595 5598 5603 5607 5612 5616 5620 5624 5630 5635 5638 5643 5650 5658 5664 5671 5677 5682 5684 5689 5696 5702 5707 5714 5721 5729 5736 5742
5729 5726 5723 5720 5717 5714 5712 5709 5706 5704 5702 5699 5697 5695 5693 5691 5689 5686 5683 5680 5677 5673 5669 5665 5662 5658 5654 5650 5647 5644 5641 5638 5634 5632 5630 5628 5626 5625 5623 5621 5619 5616 5614 5613 5612 5610 5608 5606 5604 5602 5599 5597 5595 5593 5592 5591 5592 5592 5592 5593 5597 5602 5607 5611 5615 5619 5623 5627 5631 5634 5639 5647 5655 5661 5668 5674 5678 5682 5688 5695 5699 5704 5712 5719 5726 5733 5739
5728 5725 5722 5719 5716 5714 5711 5708 5704 5702 5700 5698 5696 5694 5692 5690 5688 5686 5683 5680 5677 5673 5669 5666 5662 5659 5655 5652 5648 5645 5642 5639 5636 5633 5630 5628 5627 5625 5624 5622 5620 5618 5616 5615 5613 5611 5608 5606 5605 5603 5601 5599 5598 5596 5595 5594 5594 5594 5594 5596 5599 5604 5609 5614 5617 5619 5622 5624 5628 5632 5638 5646 5653 5659 5665 5671 5676 5681 5687 5692 5696 5703 5710 5716 5723 5730 5736
5728 5725 5721 5719 5716 5713 5711 5707 5704 5701 5699 5697 5695 5694 5691 5688 5687 5685 5683 5680 5677 5674 5670 5667 5663 5660 5657 5653 5649 5646 5643 5640 5637 5634 5631 5629 5627 5626 5624 5623 5621 5619 5618 5615 5613 5611 5609 5608 5607 5605 5604 5602 5601 5600 5599 5598 5597 5598 5599 5602 5605 5608 5611 5614 5617 5619 5621 5623 5627 5632 5639 5645 5651 5657 5663 5669 5674 5679 5685 5689 5694 5700 5708 5714 5720 5726 5732
5728 5725 5722 5718 5716 5713 5710 5707 5704 5701 5699 5697 5695 5693 5690 5688 5686 5685 5682 5680 5677 5674 5671 5668 5665 5662 5659 5655 5651 5647 5644 5642 5639 5636 5633 5630 5628 5626 5625 5623 5621 5620 5619 5616 5614 5612 5610 5609 5608 5607 5606 5605 5603 5603 5602 5602 5601 5602 5604 5606 5608 5610 5612 5615 5617 5619 5621 5623 5628 5633 5638 5644 5649 5655 5660 5666 5672 5677 5682 5687 5692 5698 5705 5711 5716 5722 5729
5728 5725 5722 5718 5716 5713 5710 5707 5705 5702 5700 5697 5695 5693 5691 5689 5687 5685 5682 5680 5677 5675 5672 5669 5666 5663 5660 5657 5653 5649 5646 5643 5640 5638 5635 5632 5630 5627 5626 5624 5623 5621 5620 5618 5616 5614 5613 5612 5610 5609 5608 5607 5606 5605 5605 5605 5605 5606 5607 5608 5610 5611 5613 5615 5617 5619 5621 5623 5627 5632 5636 5642 5647 5653 5659 5665 5671 5676 5681 5685 5690 5696 5702 5707 5713 5718 5724
5728 5725 5722 5719 5716 5713 5710 5707 5705 5702 5700 5698 5695 5693 5691 5689 5687 5685 5682 5680 5678 5675 5672 5670 5667 5664 5661 5658 5654 5651 5648 5645 5642 5639 5637 5634 5632 5629 5627 5625 5624 5623 5621 5620 5619 5617 5615 5614 5613 5611 5610 5609 5609 5608 5608 5608 5608 5608 5609 5610 5611 5612 5613 5615 5617 5618 5620 5623 5626 5630 5635 5640 5645 5652 5658 5663 5669 5674 5678 5682 5687 5693 5698 5704 5709 5714 5720
5729 5726 5722 5719 5716 5713 5710 5708 5705 5702 5700 5698 5696 5694 5691 5689 5687 5685 5682 5680 5678 5676 5673 5671 5668 5665 5662 5659 5656 5654 5651 5648 5644 5641 5639 5637 5634 5631 5629 5627 5625 5624 5623 5622 5621 5619 5617 5616 5615 5614 5612 5612 5611 5610 5610 5610 5610 5610 5610 5610 5611 5612 5613 5615 5616 5617 5619 5623 5626 5630 5634 5638 5644 5650 5656 5661 5666 5671 5675 5679 5684 5690 5695 5701 5706 5711 5717
5729 5726 5723 5721 5717 5714 5711 5708 5706 5703 5701 5698 5696 5694 5692 5690 5688 5686 5683 5681 5678 5676 5674 5672 5669 5666 5663 5660 5658 5656 5653 5650 5647 5644 5641 5639 5637 5634 5631 5629 5627 5625 5624 5623 5622 5621 5619 5618 5617 5616 5615 5614 5613 5612 5612 5611 5611 5611 5611 5610 5611 5612 5613 5615 5616 5617 5619 5622 5626 5629 5633 5637 5642 5647 5653 5659 5664 5669 5673 5677 5682 5688 5693 5698 5703 5708 5713
5730 5727 5724 5721 5718 5715 5712 5710 5707 5704 5702 5699 5697 5695 5692 5690 5688 5686 5684 5681 5679 5677 5674 5672 5669 5667 5664 5662 5660 5657 5655 5652 5649 5646 5644 5641 5639 5637 5634 5632 5630 5628 5626 5625 5623 5622 5621 5620 5620 5618 5617 5616 5615 5614 5613 5612 5612 5611 5611 5611 5611 5612 5613 5614 5615 5616 5618 5622 5625 5629 5633 5636 5640 5645 5651 5657 5662 5666 5671 5675 5680 5685 5689 5694 5699 5704 5709
5731 5728 5725 5722 5719 5716 5714 5711 5708 5706 5703 5701 5698 5696 5693 5691 5688 5686 5684 5682 5680 5678 5675 5673 5670 5668 5665 5663 5661 5659 5656 5654 5651 5649 5646 5644 5642 5639 5637 5635 5633 5631 5629 5627 5625 5624 5623 5622 5621 5620 5619 5618 5617 5615 5614 5613 5612 5612 5612 5612 5611 5612 5613 5614 5615 5616 5618 5621 5624 5628 5632 5636 5640 5645 5650 5655 5660 5664 5669 5673 5677 5682 5686 5690 5695 5700 5704
5732 5729 5726 5724 5720 5718 5715 5713 5710 5707 5705 5702 5699 5697 5694 5692 5690 5687 5685 5683 5681 5678 5676 5674 5671 5669 5666 5664 5662 5660 5658 5655 5653 5651 5649 5647 5644 5642 5639 5637 5635 5633 5632 5630 5628 5626 5625 5624 5623 5621 5620 5619 5617 5616 5614 5613 5613 5613 5613 5612 5612 5612 5613 5614 5615 5616 5618 5620 5623 5627 5630 5635 5639 5644 5649 5654 5659 5662 5666 5670 5674 5680 5684 5687 5691 5695 5699
5732 5729 5727 5725 5722 5719 5716 5714 5711 5709 5706 5704 5701 5698 5696 5694 5691 5689 5686 5684 5682 5679 5677 5675 5672 5670 5667 5665 5662 5660 5659 5657 5655 5653 5651 5649 5646 5644 5642 5639 5637 5635 5633 5631 5630 5628 5626 5625 5624 5622 5620 5619 5617 5616 5615 5614 5613 5613 5613 5613 5613 5612 5613 5614 5615 5617 5619 5621 5623 5626 5630 5634 5638 5642 5647 5653 5657 5660 5664 5668 5672 5677 5680 5683 5688 5692 5695
5732 5730 5727 5725 5723 5720 5717 5715 5712 5710 5707 5705 5702 5700 5697 5695 5692 5690 5688 5685 5683 5680 5678 5675 5673 5670 5668 5666 5663 5661 5659 5657 5655 5654 5652 5649 5647 5645 5643 5641 5639 5637 5635 5633 5631 5629 5627 5625 5623 5622 5621 5619 5617 5616 5615 5614 5614 5613 5613 5613 5613 5613 5613 5614 5615 5617 5619 5621 5624 5627 5630 5633 5637 5640 5645 5650 5654 5658 5662 5666 5671 5674 5676 5679 5684 5689 5693
5732 5730 5728 5725 5723 5720 5718 5716 5713 5711 5708 5706 5703 5701 5698 5696 5693 5691 5689 5686 5684 5681 5679 5676 5674 5672 5670 5667 5665 5663 5660 5658 5656 5654 5652 5650 5648 5646 5644 5642 5640 5638 5636 5634 5632 5630 5628 5625 5623 5622 5621 5620 5618 5617 5616 5615 5614 5614 5613 5613 5614 5614 5614 5614 5616 5617 5619 5621 5624 5626 5629 5632 5635 5638 5642 5646 5650 5654 5659 5664 5667 5670 5672 5675 5679 5683 5689
5732 5730 5728 5725 5723 5721 5718 5716 5714 5712 5709 5706 5704 5701 5699 5697 5694 5692 5690 5687 5685 5682 5680 5677 5675 5673 5671 5669 5667 5664 5662 5659 5657 5655 5653 5650 5648 5647 5645 5643 5641 5639 5637 5634 5633 5631 5629 5627 5625 5623 5622 5621 5620 5619 5617 5616 5615 5615 5614 5614 5614 5615 5615 5615 5616 5617 5619 5621 5623 5626 5628 5631 5635 5638 5641 5645 5648 5651 5654 5659 5663 5665 5668 5672 5675 5678 5683
5732 5730 5728 5725 5723 5721 5719 5716 5714 5712 5709 5707 5704 5702 5700 5697 5695 5693 5691 5688 5686 5683 5681 5679 5676 5674 5672 5670 5668 5665 5663 5661 5658 5657 5654 5652 5650 5648 5646 5644 5642 5640 5638 5636 5635 5633 5631 5629 5627 5625 5624 5623 5621 5620 5618 5617 5617 5616 5616 5615 5615 5615 5615 5615 5616 5617 5619 5621 5623 5625 5627 5630 5633 5636 5639 5644 5648 5649 5652 5655 5659 5662 5665 5669 5672 5675 5678
5732 5730 5727 5725 5723 5721 5719 5716 5714 5711 5709 5707 5704 5702 5700 5698 5695 5693 5691 5689 5687 5684 5682 5680 5678 5675 5673 5671 5669 5666 5664 5662 5661 5659 5656 5654 5652 5650 5648 5646 5644 5642 5639 5638 5636 5634 5632 5631 5629 5628 5626 5625 5623 5621 5619 5618 5618 5617 5617 5616 5616 5615 5616 5616 5616 5617 5618 5620 5622 5625 5627 5629 5632 5635 5637 5641 5645 5648 5650 5653 5656 5659 5661 5665 5669 5671 5674
5732 5729 5727 5725 5722 5720 5718 5716 5713 5711 5709 5707 5704 5702 5700 5698 5696 5694 5692 5690 5688 5685 5683 5681 5679 5676 5674 5672 5670 5668 5666 5664 5662 5660 5658 5655 5654 5652 5650 5648 5646 5644 5641 5639 5638 5636 5634 5633 5631 5630 5628 5626 5624 5622 5621 5620 5619 5618 5617 5617 5617 5616 5616 5616 5616 5617 5618 5620 5622 5624 5626 5628 5631 5633 5635 5638 5642 5645 5648 5650 5653 5655 5658 5661 5664 5667 5669
5731 5729 5727 5724 5722 5720 5718 5715 5713 5711 5709 5707 5705 5702 5700 5698 5696 5694 5692 5690 5688 5686 5684 5681 5679 5677 5675 5673 5671 5669 5667 5665 5664 5661 5659 5657 5655 5653 5651 5649 5647 5646 5644 5642 5640 5638 5636 5635 5633 5631 5630 5628 5626 5624 5623 5621 5620 5619 5618 5618 5617 5617 5617 5617 5617 5617 5617 5619 5621 5623 5625 5627 5630 5632 5633 5635 5639 5642 5644 5647 5649 5652 5654 5656 5659 5662 5665
5731 5729 5726 5724 5722 5720 5718 5715 5713 5711 5709 5707 5705 5702 5700 5699 5697 5695 5693 5691 5689 5686 5684 5682 5680 5678 5676 5673 5671 5670 5668 5666 5664 5663 5661 5658 5656 5654 5652 5650 5648 5647 5645 5643 5642 5640 5638 5636 5634 5632 5631 5630 5628 5626 5625 5623 5621 5620 5619 5618 5618 5617 5617 5617 5617 5617 5617 5618 5619 5621 5624 5626 5628 5630 5631 5633 5636 5638 5641 5643 5646 5648 5650 5653 5655 5658 5661
5730 5728 5726 5724 5722 5719 5717 5715 5713 5711 5709 5707 5705 5702 5701 5699 5697 5695 5693 5691 5689 5686 5684 5682 5680 5678 5676 5674 5672 5670 5668 5666 5665 5663 5661 5659 5657 5655 5653 5651 5649 5647 5645 5644 5643 5641 5639 5637 5635 5633 5632 5631 5630 5628 5626 5625 5623 5622 5620 5619 5618 5618 5617 5617 5617 5616 5616 5617 5618 5620 5622 5624 5627 5629 5630 5632 5634 5636 5638 5640 5642 5644 5647 5649 5652 5654 5657
5729 5727 5725 5723 5721 5719 5717 5715 5713 5711 5709 5707 5704 5702 5700 5699 5697 5695 5693 5691 5689 5686 5684 5682 5680 5678 5676 5674 5672 5670 5668 5666 5664 5662 5661 5659 5657 5655 5653 5651 5649 5647 5645 5644 5642 5640 5639 5637 5636 5635 5633 5631 5630 5628 5627 5626 5624 5623 5622 5621 5619 5618 5617 5617 5616 5616 5616 5616 5616 5618 5619 5621 5624 5626 5628 5629 5631 5633 5635 5637 5639 5641 5643 5645 5648 5651 5653
5728 5726 5724 5722 5720 5718 5716 5714 5712 5711 5709 5707 5704 5702 5700 5698 5696 5694 5693 5691 5688 5686 5684 5682 5679 5677 5675 5673 5671 5669 5667 5665 5664 5662 5660 5658 5656 5655 5653 5651 5649 5647 5645 5643 5641 5640 5638 5637 5635 5634 5633 5632 5630 5628 5627 5626 5625 5624 5622 5621 5620 5619 5618 5617 5616 5616 5615 5615 5615 5615 5617 5618 5620 5622 5624 5626 5628 5630 5632 5634 5636 5637 5639 5641 5644 5646 5649
5728 5726 5723 5721 5719 5717 5715 5713 5712 5710 5708 5706 5704 5702 5700 5698 5695 5693 5691 5689 5687 5685 5683 5681 5679 5677 5675 5673 5671 5669 5667 5665 5663 5661 5659 5657 5655 5654 5652 5650 5649 5647 5645 5643 5641 5639 5637 5635 5633 5632 5631 5630 5629 5627 5626 5624 5624 5623 5622 5621 5620 5619 5618 5616 5615 5615 5615 5614 5614 5614 5614 5615 5617 5619 5620 5622 5624 5626 5628 5631 5632 5634 5636 5638 5639 5642 5644
5727 5725 5723 5721 5719 5717 5715 5713 5711 5709 5707 5705 5703 5701 5699 5696 5694 5692 5690 5687 5685 5683 5681 5680 5678 5676 5674 5672 5670 5668 5666 5664 5662 5660 5658 5656 5654 5653 5651 5649 5647 5645 5643 5642 5640 5638 5636 5634 5632 5630 5628 5627 5626 5625 5624 5622 5621 5621 5620 5620 5619 5618 5617 5615 5614 5614 5613 5613 5613 5613 5612 5613 5614 5615 5617 5618 5620 5622 5624 5626 5629 5631 5633 5634 5636 5638 5640
5726 5724 5722 5720 5718 5716 5714 5712 5710 5708 5706 5703 5701 5699 5697 5695 5692 5690 5688 5686 5684 5682 5680 5678 5676 5674 5672 5670 5668 5666 5665 5663 5661 5659 5657 5655 5653 5651 5649 5647 5645 5643 5642 5640 5638 5636 5634 5632 5630 5628 5626 5624 5623 5622 5621 5619 5618 5618 5617 5617 5617 5616 5615 5614 5613 5613 5612 5611 5611 5611 5611 5611 5611 5612 5614 5615 5617 5618 5620 5622 5624 5627 5629 5631 5633 5634 5636
5726 5724 5722 5720 5717 5715 5713 5711 5709 5707 5704 5702 5700 5697 5695 5692 5690 5688 5686 5684 5682 5680 5678 5676 5674 5672 5670 5668 5667 5665 5663 5662 5660 5658 5656 5654 5652 5650 5648 5645 5643 5641 5639 5638 5636 5634 5632 5630 5628 5627 5625 5622 5620 5619 5618 5617 5615 5614 5613 5613 5613 5613 5613 5613 5612 5611 5611 5610 5609 5609 5610 5610 5610 5610 5611 5612 5614 5616 5617 5619 5620 5622 5625 5627 5628 5630 5632
5725 5723 5721 5719 5717 5715 5712 5710 5708 5706 5703 5700 5698 5695 5693 5690 5688 5686 5684 5682 5680 5678 5676 5674 5672 5670 5668 5667 5665 5663 5661 5660 5658 5656 5654 5652 5650 5648 5646 5643 5641 5639 5637 5635 5633 5631 5629 5627 5626 5624 5622 5620 5618 5616 5615 5614 5613 5611 5610 5610 5609 5609 5609 5609 5609 5609 5609 5608 5608 5607 5607 5607 5608 5608 5608 5609 5611 5613 5614 5616 5617 5619 5620 5622 5624 5626 5627
5725 5723 5720 5718 5716 5714 5711 5709 5707 5704 5702 5699 5697 5694 5691 5688 5685 5683 5682 5680 5678 5676 5674 5672 5670 5668 5666 5664 5663 5661 5659 5658 5656 5654 5652 5650 5648 5645 5643 5641 5639 5636 5634 5632 5630 5628 5627 5625 5623 5621 5620 5618 5616 5614 5613 5611 5610 5609 5608 5607 5606 5605 5605 5605 5606 5606 5606 5606 5605 5605 5604 5604 5604 5605 5606 5607 5608 5609 5611 5613 5614 5615 5617 5618 5620 5621 5623
5725 5722 5720 5717 5715 5713 5710 5708 5705 5703 5700 5698 5695 5692 5689 5685 5683 5681 5680 5678 5676 5674 5672 5670 5668 5666 5664 5662 5660 5658 5656 5655 5653 5652 5650 5648 5646 5643 5641 5639 5636 5634 5632 5629 5627 5625 5623 5621 5620 5618 5617 5615 5614 5612 5610 5609 5607 5606 5605 5604 5603 5602 5602 5602 5602 5602 5603 5602 5602 5602 5602 5602 5602 5602 5603 5604 5605 5606 5607 5609 5610 5611 5613 5614 5616 5617 5619
5724 5722 5719 5717 5714 5712 5709 5707 5705 5702 5699 5697 5694 5691 5688 5685 5682 5680 5678 5676 5674 5671 5669 5667 5665 5663 5661 5659 5657 5655 5654 5652 5651 5649 5648 5646 5643 5641 5639 5636 5634 5631 5629 5626 5624 5622 5620 5618 5617 5615 5614 5613 5611 5610 5608 5607 5605 5603 5602 5602 5601 5600 5599 5599 5599 5599 5599 5599 5599 5599 5599 5599 5599 5600 5601 5601 5602 5603 5604 5605 5606 5607 5609 5610 5611 5613 5614
5723 5721 5719 5716 5714 5711 5709 5706 5704 5701 5698 5696 5693 5690 5687 5684 5681 5678 5676 5673 5671 5668 5665 5664 5662 5661 5659 5657 5655 5653 5651 5650 5648 5647 5645 5643 5641 5638 5636 5633 5630 5628 5626 5623 5621 5619 5617 5616 5614 5613 5611 5610 5609 5607 5606 5605 5603 5602 5600 5599 5598 5597 5597 5596 5596 5596 5596 5596 5596 5596 5596 5596 5596 5597 5598 5598 5599 5600 5600 5601 5602 5603 5604 5606 5607 5609 5610
5722 5720 5718 5715 5713 5710 5708 5705 5703 5700 5697 5695 5692 5689 5687 5684 5680 5677 5674 5671 5668 5665 5663 5661 5660 5658 5656 5655 5653 5651 5649 5647 5646 5644 5642 5639 5637 5635 5632 5630 5627 5625 5623 5621 5619 5617 5615 5614 5612 5611 5609 5608 5607 5605 5604 5603 5601 5600 5598 5597 5596 5595 5594 5594 5593 5593 5593 5593 5593 5593 5592 5592 5593 5593 5594 5595 5595 5596 5597 5598 5599 5600 5601 5602 5603 5604 5606